Clear Lake, IA

12:56 PM CDT on September 28, 2016 (GMT -0500)
Mason City Municipal

Weather History for KMCW - December, 2014

Change the Weather History Date:

Wednesday, December 24, 2014

  Actual Average Record
Temperature  
Mean Temperature 31 °F 17 °F  
Max Temperature 34 °F 26 °F 44 °F (1940)
Min Temperature 27 °F 9 °F -24 °F (1983)
Degree Days  
Heating Degree Days 34 48  
Month to date heating degree days 873 1072  
Since 1 July heating degree days 2772 2752  
Cooling Degree Days 0 0  
Month to date cooling degree days 0 0  
Year to date cooling degree days 544 616  
Moisture  
Dew Point 30 °F    
Average Humidity 89    
Maximum Humidity 96    
Minimum Humidity 82    
Precipitation  
Precipitation T in 0.03 in 0.67 in (1932)
Month to date precipitation 0.81 1.01  
Year to date precipitation 34.92 34.97  
Snow  
Snow T in 0.30 in 15.00 in (1926)
Month to date snowfall 1.6 7.3  
Since 1 July snowfall 9.6 12.0  
Snow Depth 0.00 in    
Sea Level Pressure  
Sea Level Pressure 29.74 in    
Wind  
Wind Speed 15 mph (NW)    
Max Wind Speed 21 mph    
Max Gust Speed 25 mph    
Visibility 9 miles    
Events Snow    
T = Trace of Precipitation, MM = Missing Value Source: NWS Daily Summary

Daily Weather History Graph

Daily Weather History Graph

Search for Another Location

Airport or City:

Trip Planner

Search our weather history database for the weather conditions in past years. The results will help you decide how hot, cold, wet, or windy it might be!

Date:

Astronomy

Dec. 24, 2014 Rise Set
Actual Time 7:43 AM CST 4:42 PM CST
Civil Twilight 7:10 AM CST 5:15 PM CST
Nautical Twilight 6:34 AM CST 5:51 PM CST
Astronomical Twilight 6:00 AM CST 6:25 PM CST
Moon 9:30 AM CST (12/24) 8:12 PM CST (12/24)
Length of Visible Light 10h 04m
Length of Day
8h 59m
Waxing Crescent, 10% of the Moon is Illuminated
Dec 24
Waxing Crescent
Dec 28
First Quarter
Jan 4
Full
Jan 13
Last Quarter
Jan 20
New

Hourly Weather History & Observations

Time (CST) Temp. Windchill Dew Point Humidity Pressure Visibility Wind Dir Wind Speed Gust Speed Precip Events Conditions
12:53 AM 33.1 °F 23.4 °F 30.9 °F 92% 29.81 in 10.0 mi North 13.8 mph - N/A   Overcast
1:53 AM 33.1 °F 22.6 °F 30.9 °F 92% 29.80 in 10.0 mi North 16.1 mph - N/A   Overcast
2:12 AM 33.1 °F 22.6 °F 30.9 °F 92% 29.79 in 10.0 mi North 16.1 mph - N/A   Overcast
2:53 AM 33.1 °F 23.0 °F 30.9 °F 92% 29.81 in 10.0 mi NNW 15.0 mph - N/A   Overcast
3:33 AM 33.1 °F 24.4 °F 30.9 °F 92% 29.79 in 8.0 mi NNW 11.5 mph - 0.00 in   Overcast
3:53 AM 33.1 °F 24.4 °F 32.0 °F 96% 29.81 in 8.0 mi NNW 11.5 mph - 0.00 in   Overcast
4:12 AM 33.1 °F 23.9 °F 30.9 °F 92% 29.78 in 10.0 mi NNW 12.7 mph - N/A   Overcast
4:29 AM 33.1 °F 23.4 °F 30.9 °F 92% 29.78 in 9.0 mi NNW 13.8 mph - N/A   Overcast
4:53 AM 33.1 °F 22.6 °F 30.9 °F 92% 29.80 in 10.0 mi NNW 16.1 mph - N/A   Overcast
5:53 AM 33.1 °F 22.6 °F 30.9 °F 92% 29.79 in 7.0 mi NNW 16.1 mph - 0.00 in   Overcast
6:53 AM 33.1 °F 22.2 °F 30.9 °F 92% 29.78 in 5.0 mi NNW 17.3 mph - 0.00 in Snow Light Snow
7:53 AM 33.1 °F 23.0 °F 30.9 °F 92% 29.77 in 8.0 mi NNW 15.0 mph - 0.00 in   Overcast
8:53 AM 33.1 °F 23.0 °F 30.9 °F 92% 29.78 in 4.0 mi NNW 15.0 mph - N/A   Overcast
9:53 AM 33.1 °F 22.6 °F 30.9 °F 92% 29.78 in 10.0 mi NNW 16.1 mph - N/A   Overcast
10:53 AM 34.0 °F 24.2 °F 32.0 °F 92% 29.76 in 10.0 mi NNW 15.0 mph - N/A   Overcast
11:53 AM 33.1 °F 22.2 °F 32.0 °F 96% 29.73 in 4.0 mi NNW 17.3 mph - N/A   Overcast
12:53 PM 33.1 °F 22.2 °F 30.9 °F 92% 29.71 in 10.0 mi NW 17.3 mph - N/A   Overcast
1:16 PM 33.1 °F 22.6 °F 30.9 °F 92% 29.68 in 10.0 mi NNW 16.1 mph - N/A   Overcast
1:53 PM 33.1 °F 23.0 °F 30.9 °F 92% 29.68 in 10.0 mi NW 15.0 mph - N/A   Overcast
2:23 PM 33.1 °F 23.4 °F 30.0 °F 89% 29.65 in 10.0 mi NW 13.8 mph - N/A   Overcast
2:53 PM 33.1 °F 23.0 °F 30.0 °F 89% 29.69 in 10.0 mi NW 15.0 mph - N/A   Overcast
3:53 PM 33.1 °F 23.4 °F 28.9 °F 85% 29.70 in 10.0 mi WNW 13.8 mph - N/A   Overcast
4:53 PM 32.0 °F 22.1 °F 28.9 °F 88% 29.69 in 10.0 mi WNW 13.8 mph - N/A   Overcast
5:53 PM 32.0 °F 23.0 °F 28.9 °F 88% 29.69 in 10.0 mi NW 11.5 mph - N/A   Overcast
6:53 PM 30.9 °F 21.7 °F 28.9 °F 92% 29.69 in 10.0 mi West 11.5 mph - N/A   Overcast
7:14 PM 30.9 °F 21.2 °F 28.9 °F 92% 29.67 in 10.0 mi West 12.7 mph - N/A   Overcast
7:53 PM 30.9 °F 22.8 °F 28.9 °F 92% 29.69 in 10.0 mi West 9.2 mph - N/A   Overcast
8:53 PM 30.9 °F 20.2 °F 28.0 °F 89% 29.69 in 10.0 mi WSW 15.0 mph - N/A   Overcast
9:53 PM 28.9 °F 18.2 °F 27.0 °F 92% 29.69 in 10.0 mi SW 13.8 mph - N/A   Overcast
10:53 PM 28.0 °F 17.0 °F 27.0 °F 96% 29.69 in 9.0 mi WSW 13.8 mph - N/A   Overcast
11:02 PM 28.0 °F 15.7 °F 26.1 °F 92% 29.67 in 8.0 mi WSW 17.3 mph - N/A   Overcast
11:53 PM 28.0 °F 15.7 °F 26.1 °F 92% 29.70 in 9.0 mi SW 17.3 mph - N/A   Overcast